Time,TemperatureF,DewpointF,PressureIn,WindDirection,WindDirectionDegrees,WindSpeedMPH,WindSpeedGustMPH,Humidity,HourlyPrecipIn,Conditions,Clouds,dailyrainin,SolarRadiationWatts/m^2,SoftwareType,DateUTC
2014-03-08 00:23:00,16.0,9.0,-100.00,North,6,6.0,11.0,75,0.00,,,0.00,0.000000,,2014-03-08 05:23:00,
2014-03-08 00:33:00,16.0,9.0,-100.00,North,6,6.0,11.0,75,0.00,,,0.00,0.000000,,2014-03-08 05:33:00,
2014-03-08 00:43:00,16.0,9.0,-100.00,North,6,6.0,11.0,75,0.00,,,0.00,0.000000,,2014-03-08 05:43:00,
2014-03-08 00:52:00,16.0,9.0,-100.00,North,6,6.0,11.0,75,0.00,,,0.00,0.000000,,2014-03-08 05:52:00,
2014-03-08 01:22:00,15.0,8.0,-100.00,NNE,12,5.0,11.0,72,0.00,,,0.00,0.000000,,2014-03-08 06:22:00,
2014-03-08 01:32:00,15.0,8.0,-100.00,NNE,12,5.0,11.0,72,0.00,,,0.00,0.000000,,2014-03-08 06:32:00,
2014-03-08 01:42:00,15.0,8.0,-100.00,NNE,12,5.0,11.0,72,0.00,,,0.00,0.000000,,2014-03-08 06:42:00,
2014-03-08 01:52:00,15.0,8.0,-100.00,NNE,12,5.0,11.0,72,0.00,,,0.00,0.000000,,2014-03-08 06:52:00,
2014-03-08 02:22:00,13.0,6.0,-100.00,NNE,19,5.0,12.0,72,0.00,,,0.00,0.000000,,2014-03-08 07:22:00,
2014-03-08 02:32:00,13.0,6.0,-100.00,NNE,19,5.0,12.0,72,0.00,,,0.00,0.000000,,2014-03-08 07:32:00,
2014-03-08 02:42:00,13.0,6.0,-100.00,NNE,19,5.0,12.0,72,0.00,,,0.00,0.000000,,2014-03-08 07:42:00,
2014-03-08 02:52:00,13.0,6.0,-100.00,NNE,19,5.0,12.0,72,0.00,,,0.00,0.000000,,2014-03-08 07:52:00,
2014-03-08 03:22:00,13.0,6.0,-100.00,NNE,13,4.0,12.0,73,0.00,,,0.00,0.000000,,2014-03-08 08:22:00,
2014-03-08 03:32:00,13.0,6.0,-100.00,NNE,13,4.0,12.0,73,0.00,,,0.00,0.000000,,2014-03-08 08:32:00,
2014-03-08 03:42:00,13.0,6.0,-100.00,NNE,13,4.0,12.0,73,0.00,,,0.00,0.000000,,2014-03-08 08:42:00,
2014-03-08 03:52:00,13.0,6.0,-100.00,NNE,13,4.0,12.0,73,0.00,,,0.00,0.000000,,2014-03-08 08:52:00,
2014-03-08 04:22:00,13.0,6.0,-100.00,North,2,3.0,9.0,73,0.00,,,0.00,0.000000,,2014-03-08 09:22:00,
2014-03-08 04:33:00,13.0,6.0,-100.00,North,2,3.0,9.0,73,0.00,,,0.00,0.000000,,2014-03-08 09:33:00,
2014-03-08 04:43:00,13.0,6.0,-100.00,North,2,3.0,9.0,73,0.00,,,0.00,0.000000,,2014-03-08 09:43:00,
2014-03-08 04:54:00,13.0,6.0,-100.00,North,2,3.0,9.0,73,0.00,,,0.00,0.000000,,2014-03-08 09:54:00,
2014-03-08 05:23:00,13.0,6.0,-100.00,North,353,3.0,8.0,72,0.00,,,0.00,0.000000,,2014-03-08 10:23:00,
2014-03-08 05:33:00,13.0,6.0,-100.00,North,353,3.0,8.0,72,0.00,,,0.00,0.000000,,2014-03-08 10:33:00,
2014-03-08 05:43:00,13.0,6.0,-100.00,North,353,3.0,8.0,72,0.00,,,0.00,0.000000,,2014-03-08 10:43:00,
2014-03-08 05:53:00,13.0,6.0,-100.00,North,353,3.0,8.0,72,0.00,,,0.00,0.000000,,2014-03-08 10:53:00,
2014-03-08 06:22:00,12.0,5.0,-100.00,NNW,341,2.0,5.0,74,0.00,,,0.00,0.000000,,2014-03-08 11:22:00,
2014-03-08 06:34:00,12.0,5.0,-100.00,NNW,341,2.0,5.0,74,0.00,,,0.00,0.000000,,2014-03-08 11:34:00,
2014-03-08 06:42:00,12.0,5.0,-100.00,NNW,341,2.0,5.0,74,0.00,,,0.00,0.000000,,2014-03-08 11:42:00,
2014-03-08 06:52:00,12.0,5.0,-100.00,NNW,341,2.0,5.0,74,0.00,,,0.00,0.000000,,2014-03-08 11:52:00,
2014-03-08 07:23:00,11.0,5.0,-100.00,NNW,343,1.0,4.0,76,0.00,,,0.00,0.000000,,2014-03-08 12:23:00,
2014-03-08 07:32:00,11.0,5.0,-100.00,NNW,343,1.0,4.0,76,0.00,,,0.00,0.000000,,2014-03-08 12:32:00,
2014-03-08 07:42:00,11.0,5.0,-100.00,NNW,343,1.0,4.0,76,0.00,,,0.00,0.000000,,2014-03-08 12:42:00,
2014-03-08 07:53:00,11.0,5.0,-100.00,NNW,343,1.0,4.0,76,0.00,,,0.00,0.000000,,2014-03-08 12:53:00,
2014-03-08 08:22:00,12.0,6.0,-100.00,NNW,337,2.0,4.0,77,0.00,,,0.00,6.000000,,2014-03-08 13:22:00,
2014-03-08 08:32:00,12.0,6.0,-100.00,NNW,337,2.0,4.0,77,0.00,,,0.00,6.000000,,2014-03-08 13:32:00,
2014-03-08 08:42:00,12.0,6.0,-100.00,NNW,337,2.0,4.0,77,0.00,,,0.00,6.000000,,2014-03-08 13:42:00,
2014-03-08 08:52:00,12.0,6.0,-100.00,NNW,337,2.0,4.0,77,0.00,,,0.00,6.000000,,2014-03-08 13:52:00,
2014-03-08 09:22:00,15.0,8.0,-100.00,NNE,16,3.0,6.0,73,0.00,,,0.00,62.000000,,2014-03-08 14:22:00,
2014-03-08 09:32:00,15.0,8.0,-100.00,NNE,16,3.0,6.0,73,0.00,,,0.00,62.000000,,2014-03-08 14:32:00,
2014-03-08 09:42:00,15.0,8.0,-100.00,NNE,16,3.0,6.0,73,0.00,,,0.00,62.000000,,2014-03-08 14:42:00,
2014-03-08 09:52:00,15.0,8.0,-100.00,NNE,16,3.0,6.0,73,0.00,,,0.00,62.000000,,2014-03-08 14:52:00,
2014-03-08 10:22:00,17.0,6.0,-100.00,NE,36,4.0,9.0,62,0.00,,,0.00,158.000000,,2014-03-08 15:22:00,
2014-03-08 10:33:00,17.0,6.0,-100.00,NE,36,4.0,9.0,62,0.00,,,0.00,158.000000,,2014-03-08 15:33:00,
2014-03-08 10:43:00,17.0,6.0,-100.00,NE,36,4.0,9.0,62,0.00,,,0.00,158.000000,,2014-03-08 15:43:00,
2014-03-08 10:53:00,17.0,6.0,-100.00,NE,36,4.0,9.0,62,0.00,,,0.00,158.000000,,2014-03-08 15:53:00,
2014-03-08 11:23:00,19.0,6.0,-100.00,NW,315,4.0,9.0,55,0.00,,,0.00,269.000000,,2014-03-08 16:23:00,
2014-03-08 11:33:00,19.0,6.0,-100.00,NW,315,4.0,9.0,55,0.00,,,0.00,269.000000,,2014-03-08 16:33:00,
2014-03-08 11:42:00,19.0,6.0,-100.00,NW,315,4.0,9.0,55,0.00,,,0.00,269.000000,,2014-03-08 16:42:00,
2014-03-08 11:53:00,19.0,6.0,-100.00,NW,315,4.0,9.0,55,0.00,,,0.00,269.000000,,2014-03-08 16:53:00,
2014-03-08 12:23:00,24.0,8.0,-100.00,North,350,4.0,9.0,50,0.00,,,0.00,452.000000,,2014-03-08 17:23:00,
2014-03-08 12:33:00,24.0,8.0,-100.00,North,350,4.0,9.0,50,0.00,,,0.00,452.000000,,2014-03-08 17:33:00,
2014-03-08 12:43:00,24.0,8.0,-100.00,North,350,4.0,9.0,50,0.00,,,0.00,452.000000,,2014-03-08 17:43:00,
2014-03-08 12:52:00,24.0,8.0,-100.00,North,350,4.0,9.0,50,0.00,,,0.00,452.000000,,2014-03-08 17:52:00,
2014-03-08 13:22:00,26.0,6.0,-100.00,NNW,334,5.0,11.0,41,0.00,,,0.00,865.000000,,2014-03-08 18:22:00,
2014-03-08 13:32:00,26.0,6.0,-100.00,NNW,334,5.0,11.0,41,0.00,,,0.00,865.000000,,2014-03-08 18:32:00,
2014-03-08 13:42:00,26.0,6.0,-100.00,NNW,334,5.0,11.0,41,0.00,,,0.00,865.000000,,2014-03-08 18:42:00,
2014-03-08 13:52:00,26.0,6.0,-100.00,NNW,334,5.0,11.0,41,0.00,,,0.00,865.000000,,2014-03-08 18:52:00,
2014-03-08 14:22:00,28.0,6.0,-100.00,NNW,328,5.0,12.0,39,0.00,,,0.00,810.000000,,2014-03-08 19:22:00,
2014-03-08 14:32:00,28.0,6.0,-100.00,NNW,328,5.0,12.0,39,0.00,,,0.00,810.000000,,2014-03-08 19:32:00,
2014-03-08 14:42:00,28.0,6.0,-100.00,NNW,328,5.0,12.0,39,0.00,,,0.00,810.000000,,2014-03-08 19:42:00,
2014-03-08 14:52:00,28.0,6.0,-100.00,NNW,328,5.0,12.0,39,0.00,,,0.00,810.000000,,2014-03-08 19:52:00,
2014-03-08 15:22:00,28.0,6.0,-100.00,NNW,335,6.0,11.0,38,0.00,,,0.00,786.000000,,2014-03-08 20:22:00,
2014-03-08 15:32:00,28.0,6.0,-100.00,NNW,335,6.0,11.0,38,0.00,,,0.00,786.000000,,2014-03-08 20:32:00,
2014-03-08 15:42:00,28.0,6.0,-100.00,NNW,335,6.0,11.0,38,0.00,,,0.00,786.000000,,2014-03-08 20:42:00,
2014-03-08 15:52:00,28.0,6.0,-100.00,NNW,335,6.0,11.0,38,0.00,,,0.00,786.000000,,2014-03-08 20:52:00,
2014-03-08 16:22:00,28.0,5.0,-100.00,WNW,286,6.0,10.0,36,0.00,,,0.00,673.000000,,2014-03-08 21:22:00,
2014-03-08 16:34:00,28.0,5.0,-100.00,WNW,286,6.0,10.0,36,0.00,,,0.00,673.000000,,2014-03-08 21:34:00,
2014-03-08 16:43:00,28.0,5.0,-100.00,WNW,286,6.0,10.0,36,0.00,,,0.00,673.000000,,2014-03-08 21:43:00,
2014-03-08 16:54:00,28.0,5.0,-100.00,WNW,286,6.0,10.0,36,0.00,,,0.00,673.000000,,2014-03-08 21:54:00,
2014-03-08 17:23:00,27.0,6.0,-100.00,NW,307,5.0,10.0,41,0.00,,,0.00,505.000000,,2014-03-08 22:23:00,
2014-03-08 17:33:00,27.0,6.0,-100.00,NW,307,5.0,10.0,41,0.00,,,0.00,505.000000,,2014-03-08 22:33:00,
2014-03-08 17:42:00,27.0,6.0,-100.00,NW,307,5.0,10.0,41,0.00,,,0.00,505.000000,,2014-03-08 22:42:00,
2014-03-08 17:53:00,27.0,6.0,-100.00,NW,307,5.0,10.0,41,0.00,,,0.00,505.000000,,2014-03-08 22:53:00,
2014-03-08 18:22:00,21.0,6.0,-100.00,NNW,328,4.0,10.0,52,0.00,,,0.00,178.000000,,2014-03-08 23:22:00,
2014-03-08 18:32:00,21.0,6.0,-100.00,NNW,328,4.0,10.0,52,0.00,,,0.00,178.000000,,2014-03-08 23:32:00,
2014-03-08 18:42:00,21.0,6.0,-100.00,NNW,328,4.0,10.0,52,0.00,,,0.00,178.000000,,2014-03-08 23:42:00,
2014-03-08 18:52:00,21.0,6.0,-100.00,NNW,328,4.0,10.0,52,0.00,,,0.00,178.000000,,2014-03-08 23:52:00,
2014-03-08 19:42:00,17.0,5.0,-100.00,NNW,343,2.0,9.0,59,0.00,,,0.00,17.000000,,2014-03-09 00:42:00,
2014-03-08 19:52:00,17.0,5.0,-100.00,NNW,343,2.0,9.0,59,0.00,,,0.00,17.000000,,2014-03-09 00:52:00,